Home   Weather   West Covina   Past weeks
Flag for USA

Past Weather in West Covina, California, USA — Yesterday and Last 2 Weeks

Now
60 °F

Overcast.


Feels Like: 60 °F
Forecast: 57 / 53 °F
Wind: 8 mph from South

Location: Fullerton Municipal Airport

Current Time: Apr 5, 2020 at 8:09:00 pm

Latest Report: Apr 5, 2020 at 6:53 pm


Visibility: 10 mi

Pressure: 29.85 "Hg

Humidity: 62%

Dew Point: 47 °F

Location of West CovinaLocation

Past Weather in West Covina — Graph

°F

West Covina Temperature Yesterday

Maximum temperature yesterday: 70 °F (at 1:53 pm)
Minimum temperature yesterday: 55 °F (at 5:53 am)
Average temperature yesterday: 61 °F

High & Low Weather Summary for the Past Weeks

 TemperatureHumidityPressure
High77 °F (Mar 31, 2:53 pm)90% (Mar 22, 9:59 pm)30.24 "Hg (Mar 22, 9:59 pm)
Low44 °F (Mar 27, 5:53 am)28% (Mar 26, 12:53 pm)29.82 "Hg (Apr 1, 3:53 pm)
Average60 °F65%30.02 "Hg
* Reported Mar 21 5:53 pm — Apr 5 5:53 pm, West Covina. Weather by CustomWeather, © 2020

Note: Actual official high and low records may vary slightly from our data, if they occured in-between our weather recording intervals... More about our weather records

West Covina Weather History for the Previous 24 Hours

Scroll right to see more
 ConditionsComfort  
Time TempWeatherWind HumidityBarometerVisibility
5:53 pm
Sun, Apr 5
62 °FOvercast.9 mph60%29.85 "Hg10 mi
4:53 pm63 °FPartly sunny.12 mph58%29.85 "Hg10 mi
3:53 pm64 °FMostly cloudy.10 mph56%29.85 "Hg10 mi
2:53 pm62 °FPartly sunny.8 mph62%29.87 "Hg10 mi
1:53 pm61 °FOvercast.6 mph62%29.88 "Hg10 mi
12:53 pm60 °FMore clouds than sun.7 mph72%29.90 "Hg10 mi
11:53 am60 °FBroken clouds.6 mph78%29.91 "Hg10 mi
11:00 am57 °FLight rain. Overcast.5 mph87%29.92 "Hg7 mi
10:25 am57 °FLight rain. Fog.8 mph87%29.92 "Hg6 mi
9:53 am57 °FLight rain. Mostly cloudy.9 mph83%29.91 "Hg7 mi
9:26 am57 °FFog.5 mph87%29.92 "Hg3 mi
9:19 am57 °FFog.6 mph87%29.92 "Hg3 mi
8:53 am56 °FLight rain. Fog.No wind87%29.91 "Hg3 mi
8:12 am55 °FLight rain. Fog.6 mph88%29.91 "Hg3 mi
8:11 am56 °FLight rain. Fog.6 mph87%29.91 "Hg3 mi
7:55 am56 °FLight rain. Mostly cloudy.3 mph84%29.91 "Hg2 mi
7:35 am56 °FLight rain. More clouds than sun.5 mph84%29.90 "Hg4 mi
6:53 am57 °FLight rain. Overcast.5 mph78%29.88 "Hg7 mi
6:10 am58 °FMostly cloudy.No wind78%29.87 "Hg10 mi
5:53 am58 °FMostly cloudy.No wind78%29.87 "Hg10 mi
4:53 am59 °FOvercast.3 mph75%29.86 "Hg10 mi
4:09 am58 °FMostly cloudy.5 mph75%29.87 "Hg10 mi
3:53 am58 °FMostly cloudy.5 mph75%29.86 "Hg10 mi
2:53 am58 °FOvercast.3 mph75%29.87 "Hg10 mi
1:53 am59 °FLight rain. Mostly cloudy.3 mph78%29.88 "Hg5 mi
1:32 am60 °FMostly cloudy.6 mph72%29.89 "Hg10 mi
1:00 am60 °FOvercast.6 mph72%29.89 "Hg10 mi
11:53 pm
Sat, Apr 4
61 °FMostly cloudy.8 mph67%29.90 "Hg10 mi
11:36 pm61 °FMostly cloudy.8 mph67%29.90 "Hg10 mi
10:53 pm61 °FOvercast.5 mph67%29.90 "Hg10 mi
10:09 pm60 °FMostly cloudy.6 mph67%29.90 "Hg10 mi
9:53 pm61 °FOvercast.6 mph65%29.90 "Hg10 mi
8:53 pm60 °FMostly cloudy.6 mph67%29.88 "Hg10 mi
Weather by CustomWeather, © 2020

See weather overview

Advertising